This is the latest recevied weather packets stored in our database for station/object K4LEN. If no packets are shown the sender has not sent any weather packets the latest 1 day(s).
| Time | Temp. | Humidity | Pressure | Rain* | Wind** | Luminosity | Snow |
|---|---|---|---|---|---|---|---|
| 1836274275 | 17.78° C | 98% | 1021.7 hPa | 0 mm | 0 m/s | 0 W/m² | - |
| 1836274129 | 17.78° C | 98% | 1021.5 hPa | 0 mm | 0 m/s | 0 W/m² | - |
| 1778048759 | 20.56° C | 82% | 1011.4 hPa | 0 mm | 4.02 m/s, 10° | 10 W/m² | - |
| 1778048158 | 20.56° C | 82% | 1011 hPa | 0 mm | 4.47 m/s, 359° | 6 W/m² | - |
| 1778047554 | 20.56° C | 82% | 1011.3 hPa | 0 mm | 3.13 m/s, 342° | 7 W/m² | - |
| 1778046954 | 20.56° C | 82% | 1011.6 hPa | 0 mm | 3.13 m/s, 1° | 8 W/m² | - |
| 1778046353 | 20.56° C | 81% | 1011.8 hPa | 0 mm | 3.13 m/s, 3° | 9 W/m² | - |
| 1778045753 | 20.56° C | 81% | 1012.2 hPa | 0 mm | 2.24 m/s, 354° | 8 W/m² | - |
| 1778045149 | 20.56° C | 80% | 1012.2 hPa | 0 mm | 3.58 m/s, 17° | 8 W/m² | - |
| 1778044549 | 20.56° C | 80% | 1012.3 hPa | 0 mm | 4.92 m/s, 25° | 9 W/m² | - |
| 1778043949 | 20.56° C | 80% | 1012.2 hPa | 0 mm | 2.24 m/s, 351° | 10 W/m² | - |
| 1778043349 | 20.56° C | 79% | 1012.4 hPa | 0 mm | 2.24 m/s, 15° | 10 W/m² | - |
| 1778042750 | 20.56° C | 79% | 1012.4 hPa | 0 mm | 3.13 m/s, 3° | 7 W/m² | - |
| 1778042149 | 20.56° C | 79% | 1012.7 hPa | 0 mm | 2.24 m/s, 12° | 9 W/m² | - |
| 1778041546 | 20.56° C | 78% | 1012.7 hPa | 0 mm | 2.24 m/s, 22° | 7 W/m² | - |
| 1778040942 | 20.56° C | 78% | 1013 hPa | 0 mm | 4.47 m/s, 19° | 10 W/m² | - |
| 1778040342 | 20.56° C | 78% | 1013 hPa | 0 mm | 2.24 m/s, 356° | 7 W/m² | - |
| 1778039741 | 20.56° C | 78% | 1013.1 hPa | 0 mm | 2.68 m/s, 320° | 9 W/m² | - |
| 1778039145 | 20.56° C | 78% | 1013.1 hPa | 0 mm | 2.24 m/s, 337° | 10 W/m² | - |
| 1778038541 | 20.56° C | 78% | 1013.2 hPa | 0 mm | 1.34 m/s, 304° | 7 W/m² | - |
| 1778037941 | 20.56° C | 78% | 1013.3 hPa | 0 mm | 2.24 m/s, 342° | 7 W/m² | - |
| 1778037336 | 20.56° C | 77% | 1013.2 hPa | 0 mm | 3.13 m/s, 20° | 8 W/m² | - |
| 1778036736 | 20.56° C | 77% | 1013.2 hPa | 0 mm | 2.24 m/s, 16° | 6 W/m² | - |
| 1778036136 | 20.56° C | 77% | 1013.2 hPa | 0 mm | 2.24 m/s, 20° | 9 W/m² | - |
| 1778035535 | 20.56° C | 77% | 1012.8 hPa | 0 mm | 3.13 m/s, 5° | 9 W/m² | - |
* Rain latest hour (hover to see other rain measurements)
** Current wind speed in m/s (hover to see current wind gust speed)